AQI (30)

Current Conditions for Foresthill, CA. Mostly Cloudy, Dry   
Visibility: 10 miles
Cloud ht: 2727 ft
Space WX Alerts: ALERT:  Geomagnetic K-index of 4 ( Latest Alert ) - Issue Time: 2020 Jan 09 0904 UTC

  Summary / Temperature 

Current Temperature
56.6°F
13.7°C
(24/hr Ago)
55.5°F
(Apparent temp)
55.4°F
Cool
Wind Chill Graphs
56.6°F 

56.7°F/ 13.7°C
 --- Virtual Temp: 58.5°F ---

 Temp Rate:

 24/hr Difference:

 Avg Running Temp:

 Todays High:

 Todays Low:

 Y-days High:

 Y-days Low:

 Todays WChill:

 Y-days WChill:

 Evapotranspiration:

+0.6°F/hr 

+1.1°F

57.5°F

59.1°F 12:54pm

45.4°F 6:35am

55.7°F 1:45pm

44.9°F 8:04am

40.3°F 3:45am

39.6°F 7:01am

0.041 in

115' Above Ground

 Temperature:

 6'AGL VRS 115'AGL:

 Avg Running Temp:

 Humidity:

 Todays High:

 Todays Low:

 Y-days High:

 Y-days Low:

55.0°F 

-1.6°F

56.8°F

64% 

59.0°F 11:20am

52.0°F 12:00am

57.0°F 11:27am

49.0°F 12:00am

Temp & Humidity Graphs

  Wind 

Wind Speed

 Calm

Gusting to

 3.0 mph

Calm

286°  

Calm

 Avg speed:

 Wind Run:

 Peak Gust:

Calm 

16.0 miles

  15.0 mph 9:12am

  Almanac  

Moon age: 0 days,22 hours,30 minutes,1%

Waxing Crescent
1%
Illuminated
0 days in cycle

 Moonrise:

 Moonset:

 Sunrise:

 Sunset:

 Solar Noon:

8:02am

6:11pm

7:13am

5:13pm

12:16pm

1min 48s more daylight tomorrow 

  Solar Radiation 

(Current Solar)
  200 W/m2 (46%)
(Todays High)
 677 W/m2@12:44pm
Feels like: 62.1°F in the sun

Rain

 Rain Today:

 Rain Rate (/hr):

 Rain last hour:

 Rain Yesterday:

 This Month:

 Season Total:

4 Days Since Last Dry Day

0.00 in

0.000 in

0.00 in

0.04 in

3.55 in

18.65 in

Updated Time

Updated: 1/25/20  1:51pm

(Updated  sec ago)

Humidity & Barometer

 Humidity:

 Wetbulb:

 Dew Point:

 Barometer:

65% 

50.7°F 

45.0°F 

30.154 inHg 

 Baro Trend:  Falling Slowly 
Northern Calif
Preparedness
Fire 
Level 

    UV Index  

(Current UV)
1.0  Low
(Todays High) @ 12:44pm
2.6   Low

National Weather Service Forecast

This
Afternoon
This Afternoon: Light Rain Likely
Light Rain Likely
Tonight

Tonight: Heavy Rain
Heavy Rain
Sunday

Sunday: Rain Showers
Rain Showers
Sunday
Night
Sunday Night: Partly Cloudy
Partly Cloudy
Monday

Monday: Mostly Sunny
Mostly Sunny
Monday
Night
Monday Night: Mostly Cloudy then Chance Rain Showers
Mostly Cloudy
Hi 57 °F ↓ Lo 46 °F Hi 50 °F ↓ Lo 36 °F Hi 54 °F Lo 40 °F

Foresthill Probe 2 Stats  
Foresthill Probe 2: is located on Thomas Street
at 3000 feet. The main Foresthill Weather site
is located on Melody ln at the 2860 foot elevation

Calm
55.0°F
12.8°C
Temp Rate:
+0.7°F
Calm
Gusting to
2.0 mph
(Humidity)
70%
Wind from WNW
294°  WNW
Updated: 25/01/20 - 13:52:18
 Todays High: 56.7°F 12:54
 Todays Low: 44.2°F 06:30
 Rain Today: 0.00 in
 Season Total: 17.98 in

Foresthill Wx: Monthly,Yearly, Highs and Lows 

Foresthill  
This Weather Data is coming from the main Foresthill
Weather site located on Melody ln at the 2860 foot
elevation
Not Foresthill Probe 2
Weather Data
Month
  High
Month
  Low
Year
High
Year
Low
Temp 60.6°F
1/19/20
30.5°F
1/15/20
60.6°F
1/19/20
30.5°F
1/15/20
Humidity 100%
1/8/20
30%
1/7/20
100%
1/8/20
30%
1/7/20
Heat Index 62.1°F
1/19/20
35.0°F
1/15/20
62.1°F
1/19/20
35.0°F
1/15/20
Wind Chill 60.6°F
1/19/20
17.7°F
1/15/20
60.6°F
1/19/20
17.7°F
1/15/20
Wind Gust 40 mph
1/16/20
0 mph
1/1/20
40 mph
1/16/20
0 mph
1/1/20
Barometer 30.59 in
1/5/20
29.73 in
1/16/20
30.59 in
1/5/20
29.73 in
1/16/20
ET 0.07 in
1/7/20
0.00 in
1/1/20
0.07 in
1/7/20
0.00 in
1/1/20
Dew Point 49.0°F
1/22/20
24.2°F
1/7/20
49.0°F
1/22/20
24.2°F
1/7/20
Visible Satellite Pacific Satellite US Radar Satellite Imagery Sacramento,CA.  (click to enlarge)
NWS Weather Forecast - Summary
Updated: Saturday, January 25, 2020 - 2:45am PST
NWS Weather Forecast: This Afternoon and Tonight (Updated: Sat, 25-Jan-2020 10:09am PST)
This
Afternoon
This Afternoon: Light Rain Likely
Light Rain Likely

Hi 57 °F ↓
NWS forecast: Rain likely after 4pm. Partly sunny. High near 57, with temperatures falling to around 53 in the afternoon. Southwest wind around 2 mph. Chance of precipitation is 60%. New rainfall amounts less than a tenth of an inch possible.
Tonight

Tonight: Heavy Rain
Heavy Rain

Lo 46 °F
NWS forecast: Rain before 4am, then rain showers. Cloudy, with a low around 46. South wind 2 to 9 mph. Chance of precipitation is 100%. New rainfall amounts between three quarters and one inch possible.
YR.NO 10 Day Weather forecast
Last update: 01/25/2020 @ 05:20
Next update: 01/25/2020 @ 11:20
Provided by: 22
      Temperature Precipitation Pressure Wind  
Today
01/25/2020
11:00 12:00 57°F   30.13 inHg Light air from west 2 mph
  12:00 18:00 59°F   30.12 inHg Light air from west 3 mph
  18:00 00:00 46°F 0.14 in 30.12 inHg Light air from southeast 1 mph
    (Click to enlarge)
meteogram

    Forecast for next 9 days

      Temperature Precip Pressure Wind  
Sunday
01/26/2020
00:00 06:00 46°F 0.78 in 30.12 inHg Light breeze from south-southeast 5 mph
  06:00 12:00 45°F 0.22 in 30.15 inHg Light breeze from south 5 mph
  12:00 18:00 48°F 0.14 in 30.22 inHg Light breeze from south 6 mph
  18:00 00:00 43°F   30.27 inHg Light air from southeast 3 mph
      Temperature Precip Pressure Wind  
Monday
01/27/2020
00:00 06:00 39°F   30.32 inHg Light breeze from east-northeast 4 mph
  06:00 12:00 32°F   30.34 inHg Light breeze from east-northeast 4 mph
  12:00 18:00 52°F   30.36 inHg Light air from west-southwest 3 mph
  16:00 22:00 50°F   30.33 inHg Light breeze from southwest 4 mph
  22:00 04:00 32°F   30.36 inHg Light air from east 2 mph
      Temperature Precip Pressure Wind  
Tuesday
01/28/2020
04:00 10:00 30°F   30.33 inHg Light breeze from east 6 mph
  10:00 16:00 46°F   30.38 inHg Light breeze from south-southwest 4 mph
  16:00 22:00 46°F   30.32 inHg Light breeze from west-southwest 5 mph
  22:00 04:00 37°F   30.35 inHg Light air from east-northeast 3 mph
      Temperature Precip Pressure Wind  
Wednesday
01/29/2020
04:00 10:00 30°F   30.28 inHg Light breeze from east-northeast 6 mph
  10:00 16:00 52°F   30.26 inHg Light breeze from east-northeast 6 mph
  16:00 22:00 54°F   30.18 inHg Light breeze from west 4 mph
  22:00 04:00 37°F   30.18 inHg Gentle breeze from east-northeast 8 mph
      Temperature Precip Pressure Wind  
Thursday
01/30/2020
04:00 10:00 36°F   30.15 inHg Light breeze from east-northeast 6 mph
  10:00 16:00 55°F   30.21 inHg Light air from east-northeast 3 mph
  16:00 22:00 57°F   30.19 inHg Light air from west-northwest 3 mph
  22:00 04:00 39°F   30.26 inHg Light breeze from east-northeast 7 mph
      Temperature Precip Pressure Wind  
Friday
01/31/2020
04:00 10:00 37°F   30.27 inHg Light breeze from east-northeast 6 mph
  10:00 16:00 57°F   30.34 inHg Calm from east-northeast 0 mph
  16:00 22:00 59°F   30.29 inHg Light air from west 2 mph
  22:00 04:00 39°F   30.30 inHg Light breeze from east-northeast 6 mph
      Temperature Precip Pressure Wind  
Saturday
02/01/2020
04:00 10:00 37°F   30.25 inHg Gentle breeze from east-northeast 8 mph
  10:00 16:00 61°F   30.26 inHg Light air from east-northeast 3 mph
  16:00 22:00 61°F   30.20 inHg Light air from west 2 mph
  22:00 04:00 41°F   30.21 inHg Light breeze from east-northeast 5 mph
      Temperature Precip Pressure Wind  
Sunday
02/02/2020
04:00 10:00 36°F   30.15 inHg Light breeze from east-northeast 6 mph
  10:00 16:00 59°F   30.18 inHg Light air from east 2 mph
  16:00 22:00 61°F   30.11 inHg Light air from west-southwest 2 mph
  22:00 04:00 37°F   30.07 inHg Light breeze from east 4 mph
      Temperature Precip Pressure Wind  
Monday
02/03/2020
04:00 10:00 34°F   29.99 inHg Light air from east 3 mph
How Close Are We To this Month's Temperature Record ?
Updated Saturday, Jan 25, 2020- 1:50:01 PM

Current Temperature: 56.6°F

January's High: Temperature Record 71.3°F - Set on Sat, Jan 24, 2015 - 3:19:00 PM
We are currently 14.7°F Less than this Month's record High

January's Low: Temperature Record 24.7°F - Set on Sun, Jan 13, 2013 - 7:29:00 AM
We are currently 31.9°F More than this Month's record Low

Weather History For Saturday, January 25, 2020


On this Day - In Weather History ...
Data courtesy of weatherforyou.com
powered by Cumulus v1.9.3 (1059)
Ambient Weather VWS v14.00
Top Website Map Copyright © 2007 - 2020 Foresthillweather.com Never base important decisions on this or any weather information obtained from the Internet